Location: Newark
(30.0333°N, 31.2167°E)
Time: 06:39:51
(UTC+00:00)

Tiros 1 - Pass Details

Date: 29 January 2020
Orbit: 630 x 664 km, 48.4° (Epoch: 27 February)

Event Time Altitude Azimuth Distance (km) Brightness Sun altitude
Rises 09:18:21 0° 261° (W) 2,915 10.5 40.5°
Reaches altitude 10° 09:21:02 10° 275° (W) 2,014 9.6 40.6°
Maximum altitude 09:24:48 24° 330° (NNW) 1,319 8.6 40.8°
Drops below altitude 10° 09:28:37 10° 24° (NNE) 2,034 9.4 41.0°
Sets 09:31:21 0° 39° (NE) 2,952 10.3 41.1°
